Flag for Switzerland Weather past 2 weeks in Langenthal, Bern, Switzerland

Now
53 °F

Cool.


Feels Like: 53 °F
Forecast: 47 / 65 °F
Wind: 1 mph from Southwest

Location: Wynau

Current Time: Aug 23, 2014 at 8:42:09 AM

Latest Report: Aug 23, 2014 at 7:00 AM


Visibility: N/A

Pressure: 30.02 "Hg

Humidity: 92%

Dew point: 51 °F

Location of LangenthalLocation

Historic Weather in Langenthal — Graph

°F

Langenthal temperature yesterday

Maximum temperature yesterday: 74 °F (at 3:00 PM)
Minimum temperature yesterday: 47 °F (at 6:00 AM)
Average temperature yesterday: 60 °F

Past Weeks' High & Low Weather Summary

 TemperatureHumidityPressure
High80 °F (Aug 8, 5:00 PM)100% (Aug 10, 6:00 AM)30.23 "Hg (Aug 10, 6:00 AM)
Low46 °F (Aug 17, 4:00 AM)36% (Aug 18, 4:00 PM)29.70 "Hg (Aug 13, 9:00 AM)
Average61 °F79%29.98 "Hg
* Reported Aug 8 7:00 AM — Aug 23 7:00 AM, Langenthal, Weather by CustomWeather, © 2014

Note: Actual official high and low records may vary slightly from our data, if they occured in-between our weather recording intervals... More about our weather records

Advertising

Langenthal weather history for previous 24 hours

 ConditionsComfort  
Time TempWeatherWind HumidityBarometerVisibility
7:00 AM
Aug 23
53 °FCool.1 mph92%30.02 "HgN/A
6:00 AM52 °FCool.2 mph92%30.02 "HgN/A
5:00 AM53 °FCool.1 mph91%30.01 "HgN/A
4:00 AM53 °FCool.1 mph91%30.01 "HgN/A
3:00 AM52 °FCool.1 mph93%30.02 "HgN/A
2:00 AM54 °FCool.1 mph94%30.03 "HgN/A
1:00 AM54 °FCool.1 mph89%30.03 "HgN/A
12:00 AM56 °FCool.1 mph84%30.03 "HgN/A
11:00 PM
Aug 22
60 °FCool.1 mph69%30.01 "HgN/A
10:00 PM64 °FMild.2 mph53%29.99 "HgN/A
9:00 PM63 °FMild.2 mph61%29.98 "HgN/A
8:00 PM65 °FMild.3 mph54%29.95 "HgN/A
7:00 PM69 °FMild.6 mph48%29.93 "HgN/A
6:00 PM71 °FMild.6 mph43%29.92 "HgN/A
5:00 PM73 °FMild.12 mph38%29.91 "HgN/A
4:00 PM73 °FMild.10 mph38%29.92 "HgN/A
3:00 PM74 °FMild.9 mph38%29.93 "HgN/A
2:00 PM71 °FMild.3 mph42%29.95 "HgN/A
1:00 PM69 °FMild.2 mph42%29.97 "HgN/A
12:00 PM66 °FMild.3 mph51%29.99 "HgN/A
11:00 AM64 °FMild.2 mph65%30.01 "HgN/A
10:00 AM57 °FCool.1 mph77%30.04 "HgN/A
9:00 AM54 °FCool.1 mph81%30.04 "HgN/A
8:00 AM50 °FCool.No wind94%30.05 "HgN/A
Weather by CustomWeather, © 2014

See weather overviewHow to use our weather pages